#Datum;Uhrzeit;WR;Pac;DaySum;Status;WR;Pac;DaySum;Status;Pdc1;Udc;Temp;WR;Pac;DaySum;Status;Pdc1;Udc;Temp;WR;Pac;DaySum;Status;Pdc1;Udc;Temp;WR;Pac;DaySum;Status;Pdc1;Pdc2;Udc1;Udc2;Temp;WR;Pac;DaySum;Status;Pdc1;Pdc2;Udc1;Udc2;Temp;WR;Pac;DaySum;Status;Pdc1;Udc;Temp;WR;Pac;DaySum;Status;Pdc1;Udc;Temp;WR;Pac;DaySum;Status;Pdc1;Udc;Temp
12.10.20;23:55:00;1;253;10135;0;2;0;9046;0;0;0;0;3;0;5934;0;0;0;0;4;0;8527;0;0;0;0;5;0;0;0;0;0;0;0;0;6;0;16112;0;0;0;0;0;0;7;0;11712;0;0;0;0;8;0;5646;0;0;0;0;9;0;6236;0;0;0;0
12.10.20;23:50:00;1;290;10112;0;2;0;9046;0;0;0;0;3;0;5934;0;0;0;0;4;0;8527;0;0;0;0;5;0;0;0;0;0;0;0;0;6;0;16112;0;0;0;0;0;0;7;0;11712;0;0;0;0;8;0;5646;0;0;0;0;9;0;6236;0;0;0;0
12.10.20;23:45:00;1;247;10088;0;2;0;9046;0;0;0;0;3;0;5934;0;0;0;0;4;0;8527;0;0;0;0;5;0;0;0;0;0;0;0;0;6;0;16112;0;0;0;0;0;0;7;0;11712;0;0;0;0;8;0;5646;0;0;0;0;9;0;6236;0;0;0;0
12.10.20;23:40:00;1;247;10068;0;2;0;9046;0;0;0;0;3;0;5934;0;0;0;0;4;0;8527;0;0;0;0;5;0;0;0;0;0;0;0;0;6;0;16112;0;0;0;0;0;0;7;0;11712;0;0;0;0;8;0;5646;0;0;0;0;9;0;6236;0;0;0;0
12.10.20;23:35:00;1;247;10047;0;2;0;9046;0;0;0;0;3;0;5934;0;0;0;0;4;0;8527;0;0;0;0;5;0;0;0;0;0;0;0;0;6;0;16112;0;0;0;0;0;0;7;0;11712;0;0;0;0;8;0;5646;0;0;0;0;9;0;6236;0;0;0;0
12.10.20;23:30:00;1;297;10025;0;2;0;9046;0;0;0;0;3;0;5934;0;0;0;0;4;0;8527;0;0;0;0;5;0;0;0;0;0;0;0;0;6;0;16112;0;0;0;0;0;0;7;0;11712;0;0;0;0;8;0;5646;0;0;0;0;9;0;6236;0;0;0;0
12.10.20;23:25:00;1;300;10000;0;2;0;9046;0;0;0;0;3;0;5934;0;0;0;0;4;0;8527;0;0;0;0;5;0;0;0;0;0;0;0;0;6;0;16112;0;0;0;0;0;0;7;0;11712;0;0;0;0;8;0;5646;0;0;0;0;9;0;6236;0;0;0;0
12.10.20;23:20:00;1;307;9975;0;2;0;9046;0;0;0;0;3;0;5934;0;0;0;0;4;0;8527;0;0;0;0;5;0;0;0;0;0;0;0;0;6;0;16112;0;0;0;0;0;0;7;0;11712;0;0;0;0;8;0;5646;0;0;0;0;9;0;6236;0;0;0;0
12.10.20;23:15:00;1;356;9948;0;2;0;9046;0;0;0;0;3;0;5934;0;0;0;0;4;0;8527;0;0;0;0;5;0;0;0;0;0;0;0;0;6;0;16112;0;0;0;0;0;0;7;0;11712;0;0;0;0;8;0;5646;0;0;0;0;9;0;6236;0;0;0;0
12.10.20;23:10:00;1;370;9918;0;2;0;9046;0;0;0;0;3;0;5934;0;0;0;0;4;0;8527;0;0;0;0;5;0;0;0;0;0;0;0;0;6;0;16112;0;0;0;0;0;0;7;0;11712;0;0;0;0;8;0;5646;0;0;0;0;9;0;6236;0;0;0;0
12.10.20;23:05:00;1;391;9887;0;2;0;9046;0;0;0;0;3;0;5934;0;0;0;0;4;0;8527;0;0;0;0;5;0;0;0;0;0;0;0;0;6;0;16112;0;0;0;0;0;0;7;0;11712;0;0;0;0;8;0;5646;0;0;0;0;9;0;6236;0;0;0;0
12.10.20;23:00:00;1;318;9855;0;2;0;9046;0;0;0;0;3;0;5934;0;0;0;0;4;0;8527;0;0;0;0;5;0;0;0;0;0;0;0;0;6;0;16112;0;0;0;0;0;0;7;0;11712;0;0;0;0;8;0;5646;0;0;0;0;9;0;6236;0;0;0;0
12.10.20;22:55:00;1;339;9828;0;2;0;9046;0;0;0;0;3;0;5934;0;0;0;0;4;0;8527;0;0;0;0;5;0;0;0;0;0;0;0;0;6;0;16112;2;0;0;0;0;0;7;0;11712;0;0;0;0;8;0;5646;0;0;0;0;9;0;6236;0;0;0;0
12.10.20;22:50:00;1;344;9799;0;2;0;9046;0;0;0;0;3;0;5934;0;0;0;0;4;0;8527;0;0;0;0;5;0;0;0;0;0;0;0;0;6;0;16112;2;0;0;0;0;0;7;0;11712;0;0;0;0;8;0;5646;0;0;0;0;9;0;6236;0;0;0;0
12.10.20;22:45:00;1;327;9770;0;2;0;9046;0;0;0;0;3;0;5934;0;0;0;0;4;0;8527;0;0;0;0;5;0;0;0;0;0;0;0;0;6;0;16112;2;0;0;0;0;0;7;0;11712;0;0;0;0;8;0;5646;0;0;0;0;9;0;6236;0;0;0;0
12.10.20;22:40:00;1;438;9741;0;2;0;9046;0;0;0;0;3;0;5934;0;0;0;0;4;0;8527;0;0;0;0;5;0;0;0;0;0;0;0;0;6;0;16112;2;0;0;0;0;0;7;0;11712;0;0;0;0;8;0;5646;0;0;0;0;9;0;6236;0;0;0;0
12.10.20;22:35:00;1;427;9704;0;2;0;9046;0;0;0;0;3;0;5934;0;0;0;0;4;0;8527;0;0;0;0;5;0;0;0;0;0;0;0;0;6;0;16112;2;0;0;0;0;0;7;0;11712;0;0;0;0;8;0;5646;0;0;0;0;9;0;6236;0;0;0;0
12.10.20;22:30:00;1;413;9668;0;2;0;9046;0;0;0;0;3;0;5934;0;0;0;0;4;0;8527;0;0;0;0;5;0;0;0;0;0;0;0;0;6;0;16112;2;0;0;0;0;0;7;0;11712;0;0;0;0;8;0;5646;0;0;0;0;9;0;6236;0;0;0;0
12.10.20;22:25:00;1;417;9635;0;2;0;9046;0;0;0;0;3;0;5934;0;0;0;0;4;0;8527;0;0;0;0;5;0;0;0;0;0;0;0;0;6;0;16112;2;0;0;0;0;0;7;0;11712;0;0;0;0;8;0;5646;0;0;0;0;9;0;6236;0;0;0;0
12.10.20;22:20:00;1;396;9600;0;2;0;9046;0;0;0;0;3;0;5934;0;0;0;0;4;0;8527;0;0;0;0;5;0;0;0;0;0;0;0;0;6;0;16112;2;0;0;0;0;0;7;0;11712;0;0;0;0;8;0;5646;0;0;0;0;9;0;6236;0;0;0;0
12.10.20;22:15:00;1;434;9566;0;2;0;9046;0;0;0;0;3;0;5934;0;0;0;0;4;0;8527;0;0;0;0;5;0;0;0;0;0;0;0;0;6;0;16112;2;0;0;0;0;0;7;0;11712;0;0;0;0;8;0;5646;0;0;0;0;9;0;6236;0;0;0;0
12.10.20;22:10:00;1;444;9530;0;2;0;9046;0;0;0;0;3;0;5934;0;0;0;0;4;0;8527;0;0;0;0;5;0;0;0;0;0;0;0;0;6;0;16112;2;0;0;0;0;0;7;0;11712;0;0;0;0;8;0;5646;0;0;0;0;9;0;6236;0;0;0;0
12.10.20;22:05:00;1;362;9492;0;2;0;9046;0;0;0;0;3;0;5934;0;0;0;0;4;0;8527;0;0;0;0;5;0;0;0;0;0;0;0;0;6;0;16112;2;0;0;0;0;0;7;0;11712;0;0;0;0;8;0;5646;0;0;0;0;9;0;6236;0;0;0;0
12.10.20;22:00:00;1;396;9461;0;2;0;9046;0;0;0;0;3;0;5934;0;0;0;0;4;0;8527;0;0;0;0;5;0;0;0;0;0;0;0;0;6;0;16112;2;0;0;0;0;0;7;0;11712;0;0;0;0;8;0;5646;0;0;0;0;9;0;6236;0;0;0;0
12.10.20;21:55:00;1;471;9428;0;2;0;9046;0;0;0;0;3;0;5934;0;0;0;0;4;0;8527;0;0;0;0;5;0;0;0;0;0;0;0;0;6;0;16112;2;0;0;0;0;0;7;0;11712;0;0;0;0;8;0;5646;0;0;0;0;9;0;6236;0;0;0;0
12.10.20;21:50:00;1;475;9387;0;2;0;9046;0;0;0;0;3;0;5934;0;0;0;0;4;0;8527;0;0;0;0;5;0;0;0;0;0;0;0;0;6;0;16112;2;0;0;0;0;0;7;0;11712;0;0;0;0;8;0;5646;0;0;0;0;9;0;6236;0;0;0;0
12.10.20;21:45:00;1;438;9348;0;2;0;9046;0;0;0;0;3;0;5934;0;0;0;0;4;0;8527;0;0;0;0;5;0;0;0;0;0;0;0;0;6;0;16112;2;0;0;0;0;0;7;0;11712;0;0;0;0;8;0;5646;0;0;0;0;9;0;6236;0;0;0;0
12.10.20;21:40:00;1;433;9311;0;2;0;9046;0;0;0;0;3;0;5934;0;0;0;0;4;0;8527;0;0;0;0;5;0;0;0;0;0;0;0;0;6;0;16112;2;0;0;0;0;0;7;0;11712;0;0;0;0;8;0;5646;0;0;0;0;9;0;6236;0;0;0;0
12.10.20;21:35:00;1;446;9274;0;2;0;9046;0;0;0;0;3;0;5934;0;0;0;0;4;0;8527;0;0;0;0;5;0;0;0;0;0;0;0;0;6;0;16112;2;0;0;0;0;0;7;0;11712;0;0;0;0;8;0;5646;0;0;0;0;9;0;6236;0;0;0;0
12.10.20;21:30:00;1;444;9238;0;2;0;9046;0;0;0;0;3;0;5934;0;0;0;0;4;0;8527;0;0;0;0;5;0;0;0;0;0;0;0;0;6;0;16112;2;0;0;0;0;0;7;0;11712;0;0;0;0;8;0;5646;0;0;0;0;9;0;6236;0;0;0;0
12.10.20;21:25:00;1;506;9201;0;2;0;9046;0;0;0;0;3;0;5934;0;0;0;0;4;0;8527;0;0;0;0;5;0;0;0;0;0;0;0;0;6;0;16112;2;0;0;0;0;0;7;0;11712;0;0;0;0;8;0;5646;0;0;0;0;9;0;6236;0;0;0;0
12.10.20;21:20:00;1;480;9159;0;2;0;9046;0;0;0;0;3;0;5934;0;0;0;0;4;0;8527;0;0;0;0;5;0;0;0;0;0;0;0;0;6;0;16112;2;0;0;0;0;0;7;0;11712;0;0;0;0;8;0;5646;0;0;0;0;9;0;6236;0;0;0;0
12.10.20;21:15:00;1;463;9121;0;2;0;9046;0;0;0;0;3;0;5934;0;0;0;0;4;0;8527;0;0;0;0;5;0;0;0;0;0;0;0;0;6;0;16112;2;0;0;0;0;0;7;0;11712;0;0;0;0;8;0;5646;0;0;0;0;9;0;6236;0;0;0;0
12.10.20;21:10:00;1;483;9081;0;2;0;9046;0;0;0;0;3;0;5934;0;0;0;0;4;0;8527;0;0;0;0;5;0;0;0;0;0;0;0;0;6;0;16112;2;0;0;0;0;0;7;0;11712;0;0;0;0;8;0;5646;0;0;0;0;9;0;6236;0;0;0;0
12.10.20;21:05:00;1;471;9041;0;2;0;9046;0;0;0;0;3;0;5934;0;0;0;0;4;0;8527;0;0;0;0;5;0;0;0;0;0;0;0;0;6;0;16112;2;0;0;0;0;0;7;0;11712;0;0;0;0;8;0;5646;0;0;0;0;9;0;6236;0;0;0;0
12.10.20;21:00:00;1;482;9001;0;2;0;9046;0;0;0;0;3;0;5934;0;0;0;0;4;0;8527;0;0;0;0;5;0;0;0;0;0;0;0;0;6;0;16112;2;0;0;0;0;0;7;0;11712;0;0;0;0;8;0;5646;0;0;0;0;9;0;6236;0;0;0;0
12.10.20;20:55:00;1;554;8960;0;2;0;9046;0;0;0;0;3;0;5934;0;0;0;0;4;0;8527;0;0;0;0;5;0;0;0;0;0;0;0;0;6;0;16112;2;0;0;0;0;0;7;0;11712;0;0;0;0;8;0;5646;0;0;0;0;9;0;6236;0;0;0;0
12.10.20;20:50:00;1;382;8915;0;2;0;9046;0;0;0;0;3;0;5934;0;0;0;0;4;0;8527;0;0;0;0;5;0;0;0;0;0;0;0;0;6;0;16112;2;0;0;0;0;0;7;0;11712;0;0;0;0;8;0;5646;0;0;0;0;9;0;6236;0;0;0;0
12.10.20;20:45:00;1;373;8883;0;2;0;9046;0;0;0;0;3;0;5934;0;0;0;0;4;0;8527;0;0;0;0;5;0;0;0;0;0;0;0;0;6;0;16112;2;0;0;0;0;0;7;0;11712;0;0;0;0;8;0;5646;0;0;0;0;9;0;6236;0;0;0;0
12.10.20;20:40:00;1;277;8849;0;2;0;9046;0;0;0;0;3;0;5934;0;0;0;0;4;0;8527;0;0;0;0;5;0;0;0;0;0;0;0;0;6;0;16112;2;0;0;0;0;0;7;0;11712;0;0;0;0;8;0;5646;0;0;0;0;9;0;6236;0;0;0;0
12.10.20;20:35:00;1;275;8825;0;2;0;9046;0;0;0;0;3;0;5934;0;0;0;0;4;0;8527;0;0;0;0;5;0;0;0;0;0;0;0;0;6;0;16112;2;0;0;0;0;0;7;0;11712;0;0;0;0;8;0;5646;0;0;0;0;9;0;6236;0;0;0;0
12.10.20;20:30:00;1;311;8802;0;2;0;9046;0;0;0;0;3;0;5934;0;0;0;0;4;0;8527;0;0;0;0;5;0;0;0;0;0;0;0;0;6;0;16112;2;0;0;0;0;0;7;0;11712;0;0;0;0;8;0;5646;0;0;0;0;9;0;6236;0;0;0;0
12.10.20;20:25:00;1;402;8776;0;2;0;9046;0;0;0;0;3;0;5934;0;0;0;0;4;0;8527;0;0;0;0;5;0;0;0;0;0;0;0;0;6;0;16112;2;0;0;0;0;0;7;0;11712;0;0;0;0;8;0;5646;0;0;0;0;9;0;6236;0;0;0;0
12.10.20;20:20:00;1;330;8743;0;2;0;9046;0;0;0;0;3;0;5934;0;0;0;0;4;0;8527;0;0;0;0;5;0;0;0;0;0;0;0;0;6;0;16112;2;0;0;0;0;0;7;0;11712;0;0;0;0;8;0;5646;0;0;0;0;9;0;6236;0;0;0;0
12.10.20;20:15:00;1;322;8715;0;2;0;9046;0;0;0;0;3;0;5934;0;0;0;0;4;0;8527;0;0;0;0;5;0;0;0;0;0;0;0;0;6;0;16112;2;0;0;0;0;0;7;0;11712;0;0;0;0;8;0;5646;0;0;0;0;9;0;6236;0;0;0;0
12.10.20;20:10:00;1;235;8690;0;2;0;9046;0;0;0;0;3;0;5934;0;0;0;0;4;0;8527;0;0;0;0;5;0;0;0;0;0;0;0;0;6;0;16112;2;0;0;0;0;0;7;0;11712;0;0;0;0;8;0;5646;0;0;0;0;9;0;6236;0;0;0;0
12.10.20;20:05:00;1;234;8671;0;2;0;9046;0;0;0;0;3;0;5934;0;0;0;0;4;0;8527;0;0;0;0;5;0;0;0;0;0;0;0;0;6;0;16112;2;0;0;0;0;0;7;0;11712;0;0;0;0;8;0;5646;0;0;0;0;9;0;6236;0;0;0;0
12.10.20;20:00:00;1;277;8651;0;2;0;9046;0;0;0;0;3;0;5934;0;0;0;0;4;0;8527;0;0;0;0;5;0;0;0;0;0;0;0;0;6;0;16112;2;0;0;0;0;0;7;0;11712;0;0;0;0;8;0;5646;0;0;0;0;9;0;6236;0;0;0;0
12.10.20;19:55:00;1;301;8627;0;2;0;9046;0;0;0;0;3;0;5934;0;0;0;0;4;0;8527;0;0;0;0;5;0;0;0;0;0;0;0;0;6;0;16112;2;0;0;0;0;0;7;0;11712;0;0;0;0;8;0;5646;0;0;0;0;9;0;6236;0;0;0;0
12.10.20;19:50:00;1;235;8603;0;2;0;9046;0;0;0;0;3;0;5934;0;0;0;0;4;0;8527;0;0;0;0;5;0;0;0;0;0;0;0;0;6;0;16112;2;0;0;0;0;0;7;0;11712;0;0;0;0;8;0;5646;0;0;0;0;9;0;6236;0;0;0;0
12.10.20;19:45:00;1;235;8584;0;2;0;9046;0;0;0;0;3;0;5934;0;0;0;0;4;0;8527;0;0;0;0;5;0;0;0;0;0;0;0;0;6;0;16112;2;0;0;0;0;0;7;0;11712;0;0;0;0;8;0;5646;0;0;0;0;9;0;6236;0;0;0;0
12.10.20;19:40:00;1;269;8564;0;2;0;9046;0;0;0;0;3;0;5934;0;0;0;0;4;0;8527;0;0;0;0;5;0;0;0;0;0;0;0;0;6;0;16112;2;0;0;0;0;0;7;0;11712;0;0;0;0;8;0;5646;0;0;0;0;9;0;6236;0;0;0;0
12.10.20;19:35:00;1;353;8540;0;2;0;9046;0;0;0;0;3;0;5934;0;0;0;0;4;0;8527;0;0;0;0;5;0;0;0;0;0;0;0;0;6;0;16112;2;0;0;0;0;0;7;0;11712;0;0;0;0;8;0;5646;0;0;0;0;9;0;6236;0;0;0;0
12.10.20;19:30:00;1;531;8510;0;2;0;9046;0;0;0;0;3;0;5934;0;0;0;0;4;0;8527;0;0;0;0;5;0;0;0;0;0;0;0;0;6;0;16112;2;0;0;0;0;0;7;0;11712;0;0;0;0;8;0;5646;0;0;0;0;9;0;6236;0;0;0;0
12.10.20;19:25:00;1;741;8466;0;2;0;9046;0;0;0;0;3;0;5934;0;0;0;0;4;0;8527;0;0;0;0;5;0;0;0;0;0;0;0;0;6;0;16112;2;0;0;0;0;0;7;0;11712;0;0;0;0;8;0;5646;0;0;0;0;9;0;6236;0;0;0;0
12.10.20;19:20:00;1;695;8408;0;2;0;9046;0;0;0;0;3;0;5934;0;0;0;0;4;0;8527;0;0;0;0;5;0;0;0;0;0;0;0;0;6;0;16112;2;0;0;0;0;0;7;0;11712;0;0;0;0;8;0;5646;0;0;0;0;9;0;6236;0;0;0;0
12.10.20;19:15:00;1;583;8354;0;2;0;9046;0;0;0;0;3;0;5934;0;0;0;0;4;0;8527;0;0;0;0;5;0;0;0;0;0;0;0;0;6;0;16112;2;0;0;0;0;0;7;0;11712;0;0;0;0;8;0;5646;0;0;0;0;9;0;6236;0;0;0;0
12.10.20;19:10:00;1;826;8305;0;2;0;9046;0;0;0;0;3;0;5934;0;0;0;0;4;0;8527;0;0;0;0;5;0;0;0;0;0;0;0;0;6;0;16112;2;0;0;0;0;0;7;0;11712;0;0;0;0;8;0;5646;0;0;0;0;9;0;6236;0;0;0;0
12.10.20;19:05:00;1;1161;8238;0;2;0;9046;0;0;0;0;3;0;5934;0;0;0;0;4;0;8527;0;0;0;0;5;0;0;0;0;0;0;0;0;6;0;16112;2;0;0;0;0;0;7;0;11712;0;0;0;0;8;0;5646;0;0;0;0;9;0;6236;0;0;0;0
12.10.20;19:00:00;1;1374;8159;0;2;0;9046;0;0;0;0;3;0;5934;0;0;0;0;4;0;8527;0;0;0;0;5;0;0;0;0;0;0;0;0;6;0;16112;2;0;0;0;0;0;7;0;11712;0;0;0;0;8;0;5646;0;0;0;0;9;0;6236;0;0;0;0
12.10.20;18:55:00;1;469;8070;0;2;0;9046;0;0;0;0;3;0;5934;0;0;0;0;4;0;8527;0;0;0;0;5;0;0;0;0;0;0;0;0;6;0;16112;2;0;0;0;0;0;7;0;11712;0;0;0;0;8;0;5646;0;0;0;0;9;0;6236;0;0;0;0
12.10.20;18:50:00;1;469;8055;0;2;0;9046;0;0;0;0;3;0;5934;0;0;0;0;4;0;8527;0;0;0;0;5;0;0;0;0;0;0;0;0;6;0;16112;2;0;0;0;0;0;7;0;11712;0;0;0;0;8;0;5646;0;0;0;0;9;0;6236;0;0;0;0
12.10.20;18:45:00;1;487;8016;0;2;0;9046;0;0;0;0;3;0;5934;0;0;110;8;4;0;8527;0;0;0;0;5;0;0;0;0;0;0;0;0;6;0;16112;2;0;0;0;0;0;7;0;11712;0;0;0;0;8;0;5646;0;0;0;0;9;0;6236;0;0;0;0
12.10.20;18:40:00;1;485;7976;0;2;0;9046;2;0;269;16;3;0;5934;6;0;302;19;4;0;8527;0;0;33;8;5;0;0;0;0;0;0;0;0;6;0;16112;2;0;0;0;0;0;7;0;11712;0;0;0;0;8;0;5646;0;0;0;0;9;0;6236;0;0;0;0
12.10.20;18:35:00;1;482;7935;0;2;0;9046;6;0;311;17;3;0;5934;6;0;370;19;4;0;8527;2;0;93;17;5;0;0;0;0;0;0;0;0;6;0;16112;2;1;0;29;33;8;7;0;11712;0;0;0;0;8;0;5646;0;0;0;0;9;0;6236;0;0;0;0
12.10.20;18:30:00;1;459;7895;0;2;0;9046;6;0;349;17;3;0;5934;6;1;411;20;4;0;8527;1;0;138;17;5;0;0;0;0;0;0;0;0;6;0;16112;23;11;0;180;475;27;7;0;11712;0;0;233;17;8;0;5646;0;0;233;16;9;0;6236;6;0;296;16
12.10.20;18:25:00;1;499;7855;0;2;0;9046;6;0;368;17;3;0;5934;6;3;434;20;4;0;8527;1;0;170;17;5;0;0;0;0;0;0;0;0;6;0;16112;23;7;0;181;530;27;7;0;11712;6;0;332;21;8;0;5646;6;0;334;20;9;0;6236;6;0;356;16
12.10.20;18:20:00;1;452;7815;0;2;0;9046;6;0;384;17;3;0;5934;6;3;467;20;4;0;8527;1;0;200;18;5;0;0;0;0;0;0;0;0;6;0;16112;23;6;0;267;559;28;7;0;11712;6;0;392;21;8;0;5646;6;0;395;20;9;0;6236;6;1;405;17
12.10.20;18:15:00;1;482;7777;0;2;0;9046;6;0;392;17;3;1;5934;6;3;477;20;4;0;8527;1;0;214;18;5;0;0;0;0;0;0;0;0;6;0;16112;23;8;0;384;568;28;7;0;11712;6;3;395;21;8;0;5646;6;0;411;20;9;0;6236;6;2;426;17
12.10.20;18:10:00;1;481;7737;0;2;0;9046;6;0;395;18;3;0;5933;6;0;503;20;4;0;8527;1;0;219;18;5;0;0;0;0;0;0;0;0;6;0;16112;23;9;2;555;571;29;7;0;11712;6;1;410;21;8;0;5646;6;0;418;20;9;0;6236;6;1;450;17
12.10.20;18:05:00;1;512;7697;0;2;0;9046;6;0;399;18;3;1;5933;4;4;488;21;4;0;8527;3;0;214;19;5;0;0;0;0;0;0;0;0;6;0;16112;23;6;0;467;575;29;7;0;11712;6;1;417;22;8;0;5646;4;0;422;21;9;0;6236;6;1;452;17
12.10.20;18:00:00;1;578;7654;0;2;0;9046;6;0;409;18;3;0;5933;6;5;500;21;4;0;8527;3;0;224;19;5;0;0;0;0;0;0;0;0;6;25;16112;1;16;9;522;433;30;7;0;11712;6;1;438;22;8;0;5646;3;1;423;21;9;2;6236;3;4;462;17
12.10.20;17:55:00;1;568;7608;0;2;3;9046;6;8;407;19;3;1;5933;6;6;510;21;4;0;8527;3;0;200;19;5;0;0;0;0;0;0;0;0;6;61;16110;4;45;25;441;283;31;7;0;11712;6;4;457;22;8;0;5646;6;1;457;21;9;0;6236;6;4;499;18
12.10.20;17:50:00;1;570;7562;0;2;47;9046;4;81;365;19;3;3;5933;6;8;523;21;4;13;8527;3;14;199;20;5;0;0;0;0;0;0;0;0;6;87;16105;4;59;36;441;283;31;7;6;11712;4;16;454;22;8;2;5646;6;7;454;21;9;1;6236;6;5;528;18
12.10.20;17:45:00;1;589;7515;0;2;67;9042;4;104;359;20;3;7;5933;6;13;529;22;4;28;8526;3;29;198;20;5;0;0;0;0;0;0;0;0;6;108;16097;4;64;43;441;283;31;7;47;11711;4;81;394;23;8;0;5646;6;5;482;21;9;4;6236;6;10;536;18
12.10.20;17:40:00;1;556;7465;0;2;98;9037;4;133;367;20;3;44;5933;6;74;450;22;4;56;8523;3;58;198;20;5;0;0;0;0;0;0;0;0;6;139;16088;4;87;51;441;283;31;7;77;11707;4;112;407;23;8;4;5646;6;12;482;22;9;5;6235;6;9;555;18
12.10.20;17:35:00;1;479;7419;0;2;150;9029;4;187;373;20;3;83;5929;4;126;483;22;4;103;8519;3;107;217;20;5;0;0;0;0;0;0;0;0;6;186;16076;4;109;68;441;283;31;7;142;11701;4;182;428;23;8;46;5645;4;83;439;22;9;65;6235;6;92;499;19
12.10.20;17:30:00;1;488;7378;0;2;227;9016;4;269;381;20;3;134;5922;4;177;511;22;4;170;8510;5;177;231;20;5;0;0;0;0;0;0;0;0;6;242;16060;4;158;102;441;283;31;7;227;11689;4;267;449;23;8;87;5641;4;130;453;22;9;122;6229;4;156;510;19
12.10.20;17:25:00;1;471;7338;0;2;233;8997;4;276;384;21;3;137;5911;4;179;510;23;4;165;8496;5;172;225;20;5;0;0;0;0;0;0;0;0;6;226;16040;4;150;95;441;283;31;7;220;11670;4;261;428;23;8;81;5634;4;121;483;22;9;118;6219;4;154;518;19
12.10.20;17:20:00;1;512;7297;0;2;238;8978;4;282;388;21;3;142;5899;4;184;503;23;4;166;8482;5;172;228;21;5;0;0;0;0;0;0;0;0;6;281;16021;4;154;143;474;444;31;7;229;11652;4;273;444;23;8;92;5627;4;134;445;22;9;122;6210;4;156;513;19
12.10.20;17:15:00;1;491;7255;0;2;522;8958;4;574;394;21;3;282;5888;4;326;492;23;4;375;8469;5;390;230;21;5;0;0;0;0;0;0;0;0;6;506;15998;4;242;243;584;560;31;7;470;11633;4;516;440;23;8;210;5620;4;251;463;22;9;170;6199;4;207;532;19
12.10.20;17:10:00;1;486;7214;0;2;709;8906;4;770;404;21;3;373;5861;4;424;510;23;4;561;8432;5;585;240;21;5;0;0;0;0;0;0;0;0;6;671;15944;4;345;326;585;539;31;7;750;11588;4;805;441;23;8;355;5600;4;404;473;22;9;247;6185;4;287;540;19
12.10.20;17:05:00;1;488;7173;0;2;628;8841;4;682;397;21;3;389;5827;4;442;518;23;4;518;8378;5;539;245;21;5;0;0;0;0;0;0;0;0;6;583;15894;4;376;213;585;321;31;7;703;11513;4;758;480;23;8;340;5564;4;380;487;22;9;308;6165;4;352;537;19
12.10.20;17:00:00;1;550;7133;0;2;506;8789;4;558;399;21;3;316;5795;4;365;507;23;4;421;8335;5;438;239;21;5;0;0;0;0;0;0;0;0;6;521;15845;4;338;180;589;283;31;7;530;11455;4;577;468;23;8;243;5536;4;286;476;22;9;278;6139;4;318;522;19
12.10.20;16:55:00;1;542;7088;0;2;445;8746;4;495;404;20;3;278;5768;4;326;506;23;4;371;8299;5;386;237;21;5;0;0;0;0;0;0;0;0;6;473;15802;4;323;174;554;283;31;7;431;11410;4;474;480;23;8;191;5516;4;237;451;22;9;234;6115;4;273;522;19
12.10.20;16:50:00;1;558;7042;0;2;258;8710;4;301;381;20;3;157;5745;4;198;509;23;4;206;8268;5;215;232;21;5;0;0;0;0;0;0;0;0;6;269;15764;4;175;109;441;283;31;7;196;11375;4;241;474;23;8;82;5500;4;114;388;22;9;118;6096;4;150;492;19
12.10.20;16:45:00;1;582;6997;0;2;168;8687;4;205;369;20;3;95;5731;4;138;495;23;4;123;8250;5;128;219;21;5;0;0;0;0;0;0;0;0;6;210;15742;4;131;84;441;283;31;7;130;11357;4;167;444;23;8;43;5492;4;75;362;22;9;48;6085;4;67;485;19
12.10.20;16:40:00;1;509;6948;0;2;175;8673;4;214;374;21;3;102;5723;4;141;483;23;4;128;8240;3;134;217;21;5;0;0;0;0;0;0;0;0;6;316;15724;4;172;171;523;489;31;7;161;11346;4;207;447;23;8;57;5489;4;94;427;22;9;78;6082;6;103;512;19
12.10.20;16:35:00;1;520;6905;0;2;258;8659;4;302;381;21;3;157;5715;4;200;481;23;4;211;8230;5;220;226;21;5;0;0;0;0;0;0;0;0;6;444;15698;4;221;219;564;553;31;7;267;11333;4;314;460;23;8;112;5484;4;150;429;22;9;148;6076;4;183;506;20
12.10.20;16:30:00;1;599;6862;0;2;295;8637;4;337;385;21;3;180;5702;4;222;491;23;4;244;8212;5;253;227;21;5;0;0;0;0;0;0;0;0;6;494;15661;4;248;253;556;544;31;7;325;11311;4;359;450;23;8;135;5475;4;170;423;22;9;171;6064;4;207;507;20
12.10.20;16:25:00;1;556;6813;0;2;358;8613;4;406;393;21;3;218;5687;4;263;497;23;4;297;8192;5;310;231;21;5;0;0;0;0;0;0;0;0;6;597;15619;4;296;305;569;555;31;7;391;11284;4;434;444;23;8;173;5464;4;210;456;22;9;212;6050;4;245;503;20
12.10.20;16:20:00;1;505;6766;0;2;480;8583;4;531;394;22;3;297;5669;4;345;508;24;4;413;8167;5;430;236;21;5;0;0;0;0;0;0;0;0;6;777;15568;4;399;391;583;562;31;7;525;11252;4;573;458;23;8;240;5449;4;279;453;22;9;282;6032;4;325;522;20
12.10.20;16:15:00;1;481;6723;0;2;519;8543;4;572;400;22;3;325;5644;4;372;501;24;4;447;8132;5;466;235;21;5;0;0;0;0;0;0;0;0;6;827;15502;4;390;392;588;557;31;7;567;11208;4;611;474;23;8;264;5429;4;298;473;22;9;304;6008;4;347;513;20
12.10.20;16:10:00;1;482;6683;0;2;506;8500;4;554;399;22;3;315;5617;4;365;510;24;4;431;8095;5;449;235;21;5;0;0;0;0;0;0;0;0;6;800;15434;4;402;396;577;555;31;7;531;11161;4;575;458;23;8;235;5407;4;283;473;22;9;286;5983;4;329;519;20
12.10.20;16:05:00;1;520;6643;0;2;500;8457;4;551;396;22;3;312;5590;4;362;507;24;4;428;8059;5;446;235;22;5;0;0;0;0;0;0;0;0;6;796;15367;4;415;416;580;562;31;7;527;11117;4;565;460;23;8;234;5387;4;275;469;22;9;277;5959;4;323;529;20
12.10.20;16:00:00;1;644;6599;0;2;544;8416;4;599;397;22;3;341;5564;4;391;511;24;4;471;8023;5;491;238;22;5;0;0;0;0;0;0;0;0;6;867;15300;4;442;427;587;562;31;7;570;11073;4;619;472;24;8;256;5368;4;303;479;22;9;305;5936;4;351;523;20
12.10.20;15:55:00;1;640;6546;0;2;562;8370;4;616;401;22;3;352;5536;4;404;498;24;4;481;7984;5;501;240;22;5;0;0;0;0;0;0;0;0;6;887;15227;4;448;448;580;559;31;7;585;11025;4;629;462;24;8;265;5346;4;305;487;22;9;316;5910;4;360;511;20
12.10.20;15:50:00;1;405;6492;0;2;516;8323;4;566;395;22;3;319;5507;4;373;510;24;4;443;7944;5;461;237;22;5;0;0;0;0;0;0;0;0;6;829;15154;4;417;412;579;563;31;7;530;10977;4;577;453;24;8;248;5325;4;286;473;22;9;288;5884;4;332;518;20
12.10.20;15:45:00;1;293;6456;0;2;504;8280;4;555;395;22;3;316;5480;4;366;502;24;4;435;7907;5;453;235;22;5;0;0;0;0;0;0;0;0;6;819;15085;4;430;416;581;560;31;7;508;10932;4;561;452;24;8;236;5304;4;274;481;22;9;279;5860;4;323;523;20
12.10.20;15:40:00;1;272;6432;0;2;440;8238;4;489;394;22;3;275;5454;4;322;498;24;4;380;7871;5;395;234;22;5;0;0;0;0;0;0;0;0;6;717;15017;4;368;367;566;557;31;7;444;10890;4;487;465;24;8;200;5284;4;242;463;22;9;243;5837;4;280;506;20
12.10.20;15:35:00;1;313;6410;0;2;440;8201;4;489;399;22;3;270;5430;4;315;473;24;4;384;7839;5;400;232;22;5;0;0;0;0;0;0;0;0;6;754;14957;4;378;368;581;563;31;7;448;10853;4;501;465;24;8;205;5267;4;240;444;22;9;246;5816;4;285;513;21
12.10.20;15:30:00;1;355;6383;0;2;553;8165;4;607;400;22;3;344;5408;4;398;497;24;4;481;7807;5;501;235;22;5;0;0;0;0;0;0;0;0;6;919;14893;4;471;451;582;557;31;7;594;10815;4;648;473;24;8;277;5250;4;316;480;22;9;319;5796;4;365;507;21
12.10.20;15:25:00;1;272;6352;0;2;613;8119;4;668;397;22;3;385;5379;4;439;508;24;4;528;7767;5;550;234;22;5;0;0;0;0;0;0;0;0;6;977;14816;4;488;479;585;565;31;7;669;10766;4;718;476;24;8;308;5227;4;351;489;22;9;363;5769;4;410;522;21
12.10.20;15:20:00;1;307;6329;0;2;652;8068;4;708;398;22;3;411;5347;4;463;502;24;4;568;7723;5;592;240;22;5;0;0;0;0;0;0;0;0;6;1032;14734;4;527;512;588;566;31;7;660;10710;4;722;469;24;8;308;5201;4;354;480;22;9;365;5739;4;411;514;21
12.10.20;15:15:00;1;334;6304;0;2;675;8013;4;733;402;22;3;426;5313;4;479;507;24;4;590;7676;5;614;240;22;5;0;0;0;0;0;0;0;0;6;1067;14648;4;545;536;582;569;31;7;728;10655;4;788;477;24;8;347;5176;4;389;471;22;9;394;5708;4;444;521;21
12.10.20;15:10:00;1;365;6277;0;2;651;7957;4;708;405;22;3;415;5277;4;467;502;24;4;567;7627;5;590;236;22;5;0;0;0;0;0;0;0;0;6;1026;14559;4;516;507;583;566;31;7;694;10595;4;751;473;24;8;327;5147;4;374;479;22;9;379;5676;4;428;520;21
12.10.20;15:05:00;1;366;6246;0;2;577;7903;4;629;395;22;3;360;5243;4;414;505;24;4;493;7579;5;513;237;22;5;0;0;0;0;0;0;0;0;6;900;14474;4;452;444;581;566;31;7;594;10537;4;639;469;24;8;272;5120;4;313;459;22;9;321;5644;4;365;515;21
12.10.20;15:00:00;1;409;6216;0;2;614;7855;4;669;403;22;3;388;5213;4;443;509;24;4;536;7538;5;558;238;22;5;0;0;0;0;0;0;0;0;6;946;14398;4;494;455;591;535;31;7;628;10487;4;676;478;24;8;285;5097;4;326;490;22;9;342;5617;4;387;521;21
12.10.20;14:55:00;1;342;6181;0;2;534;7803;4;588;401;22;3;334;5180;4;387;503;24;4;445;7493;5;464;238;22;5;0;0;0;0;0;0;0;0;6;621;14321;4;409;234;586;307;31;7;535;10435;4;581;473;24;8;248;5073;4;284;484;22;9;293;5589;4;335;518;21
12.10.20;14:50:00;1;270;6151;0;2;296;7759;4;341;386;22;3;182;5153;4;225;505;24;4;233;7457;5;242;233;22;5;0;0;0;0;0;0;0;0;6;349;14272;4;220;122;549;283;31;7;279;10391;4;330;466;25;8;117;5053;4;158;463;22;9;159;5565;4;193;506;21
12.10.20;14:45:00;1;272;6128;0;2;319;7735;4;365;390;23;3;183;5137;4;241;492;24;4;256;7437;5;267;231;22;5;0;0;0;0;0;0;0;0;6;340;14243;4;220;135;462;283;31;7;275;10367;4;318;466;25;8;114;5043;4;153;465;22;9;150;5551;4;185;498;21
12.10.20;14:40:00;1;271;6105;0;2;195;7708;4;235;373;23;3;111;5122;4;153;508;25;4;137;7416;5;142;219;23;5;0;0;0;0;0;0;0;0;6;207;14216;4;133;83;441;283;31;7;129;10345;4;171;468;25;8;21;5033;4;30;491;22;9;29;5539;4;36;540;21
12.10.20;14:35:00;1;334;6083;0;2;146;7692;4;187;373;23;3;87;5113;4;124;479;25;4;95;7405;3;99;206;23;5;0;0;0;0;0;0;0;0;6;182;14199;4;119;73;441;283;31;7;90;10334;4;127;419;25;8;5;5032;4;10;495;23;9;8;5536;3;12;547;21
12.10.20;14:30:00;1;315;6055;0;2;179;7680;4;219;364;24;3;102;5105;4;145;502;25;4;133;7397;5;139;220;23;5;0;0;0;0;0;0;0;0;6;268;14183;4;138;133;441;410;32;7;113;10326;4;149;421;25;8;37;5031;4;66;367;23;9;26;5535;3;38;530;22
12.10.20;14:25:00;1;271;6028;0;2;252;7665;4;295;377;24;3;150;5097;4;192;502;25;4;198;7386;5;206;227;24;5;0;0;0;0;0;0;0;0;6;390;14160;4;181;209;441;549;32;7;215;10317;4;257;448;26;8;77;5028;4;119;461;23;9;112;5533;4;146;498;22
12.10.20;14:20:00;1;272;6005;0;2;245;7644;4;288;378;25;3;147;5084;4;191;487;26;4;188;7369;5;195;222;24;5;0;0;0;0;0;0;0;0;6;411;14128;4;211;215;558;542;32;7;228;10299;4;265;433;26;8;87;5021;4;127;460;23;9;121;5524;4;154;492;23
12.10.20;14:15:00;1;305;5982;0;2;343;7623;4;394;394;25;3;212;5072;4;258;485;26;4;283;7354;5;295;229;25;5;0;0;0;0;0;0;0;0;6;566;14092;4;284;284;572;546;32;7;326;10280;4;368;445;26;8;138;5014;4;177;442;23;9;170;5514;4;205;500;23
12.10.20;14:10:00;1;313;5956;0;2;586;7594;4;643;400;26;3;366;5054;4;416;496;27;4;494;7330;5;515;235;25;5;0;0;0;0;0;0;0;0;6;922;14043;4;482;470;584;557;32;7;614;10252;4;669;461;26;8;286;5003;4;321;467;23;9;324;5499;4;369;512;24
12.10.20;14:05:00;1;333;5930;0;2;737;7546;4;800;402;27;3;467;5024;4;523;510;27;4;622;7289;5;647;238;25;5;0;0;0;0;0;0;0;0;6;1090;13964;4;560;541;584;566;32;7;836;10201;4;894;473;26;8;391;4979;4;438;478;23;9;444;5473;4;497;520;25
12.10.20;14:00:00;1;482;5902;0;2;853;7484;4;923;401;27;3;538;4985;4;598;512;28;4;719;7237;5;748;237;26;5;0;0;0;0;0;0;0;0;6;1237;13874;4;627;608;583;559;32;7;1094;10131;4;1159;471;27;8;514;4946;4;563;467;23;9;577;5435;4;636;523;25